Location: Lanoux
(43.1180°N, 1.4255°E)
Time: 23:04:25
(UTC+00:00)

Meteor 2-10 - Visible Passes

Search period start: 14 March 2026 00:00
Search period end: 24 March 2026 00:00
Orbit: 736 x 866 km, 81.2° (Epoch: 14 March)

Date Brightness Start Highest point End Pass type
(mag) Time Alt. Az. Time Alt. Az. Time Alt. Az.
14 Mar 7.1 04:27:51 10° NE 04:30:07 13° ENE 04:32:23 10° E visible
14 Mar 4.2 19:09:16 10° SSW 19:14:37 79° W 19:19:49 10° N visible
14 Mar 7.4 20:56:52 10° WNW 20:57:20 10° WNW 20:57:49 10° NW visible
15 Mar 4.0 18:42:28 10° S 18:47:46 71° E 18:52:55 10° NNE visible
15 Mar 7.0 20:27:10 10° W 20:30:10 15° WNW 20:33:07 10° NNW visible
16 Mar 5.2 05:13:58 10° N 05:18:50 47° ENE 05:23:43 10° SSE visible
16 Mar 6.6 19:59:03 10° WSW 20:03:04 22° WNW 20:07:01 10° NNW visible
17 Mar 6.0 04:47:21 10° N 04:51:51 31° ENE 04:56:22 10° SE visible
17 Mar 6.0 19:31:23 10° SW 19:36:02 31° WNW 19:40:35 10° N visible
18 Mar 6.6 04:20:55 10° NNE 04:24:48 22° ENE 04:28:42 10° ESE visible
18 Mar 5.3 19:04:00 10° SSW 19:09:03 45° WNW 19:13:59 10° N visible
19 Mar 7.1 03:54:48 10° NNE 03:57:42 15° ENE 04:00:36 10° E visible
19 Mar 4.5 18:36:53 10° SSW 18:42:08 68° WNW 18:47:14 10° N visible
20 Mar 7.4 03:30:21 10° ENE 03:30:31 10° ENE 03:30:42 10° ENE visible
20 Mar 4.1 05:08:09 10° N 05:13:13 82° E 05:18:22 10° SSE visible
20 Mar 7.3 19:55:31 10° W 19:57:47 13° WNW 20:00:01 10° NW visible
21 Mar 4.8 04:41:21 10° N 04:46:19 55° ENE 04:51:22 10° SSE visible
21 Mar 7.0 19:27:04 10° WSW 19:30:38 19° WNW 19:34:11 10° NNW visible
22 Mar 5.6 04:14:41 10° N 04:19:22 37° ENE 04:24:07 10° SE visible
22 Mar 6.4 18:59:14 10° SW 19:03:34 27° WNW 19:07:52 10° NNW visible
23 Mar 6.2 03:48:10 10° NNE 03:52:21 25° ENE 03:56:36 10° SE visible
23 Mar 5.7 18:31:44 10° SW 18:36:34 38° WNW 18:41:19 10° N visible
